Location: Banios
(43.0451°N, 0.2335°E)
Time: 12:26:23
(UTC+00:00)

A-11 Canister half - Pass Details

Date: 13 May 2021
Orbit: 1513 x 1686 km, 47.2° (Epoch: 14 June)

Event Time Altitude Azimuth Distance (km) Brightness Sun altitude
Rises 13:21:05 0° 209° (SSW) 4,694 12.0 59.5°
Reaches altitude 10° 13:24:23 10° 202° (SSW) 3,696 11.6 59.1°
Maximum altitude 13:32:47 40° 137° (SE) 2,100 10.3 58.0°
Drops below altitude 10° 13:41:07 10° 72° (ENE) 3,677 10.8 56.9°
Sets 13:44:23 0° 65° (ENE) 4,668 11.2 56.4°
